FW3819 Weather Reports


Display with metric or nautical units.
time (UTC)temp
F
wind
direction
speed
MPH
gust
MPH
rain 1hr
in
rain 24hr
in
rain mn
in
humidity
%
barometer
mb
20260831115000 70 143 1.0 5.0 0.00 1.23 0.00 95 1020.9
20260831114501 70 37 1.0 4.0 0.00 1.23 0.00 95 1021.0
20260831114302 70 279 1.0 3.0 0.00 1.23 0.00 95 1020.8
20260831113503 69 54 0.0 3.0 0.00 1.23 0.00 95 1020.6
20260831113002 70 326 0.0 3.0 0.00 1.23 0.00 95 1020.6
20260831112503 70 326 0.0 1.0 0.00 1.23 0.00 95 1020.3
20260831112001 69 234 0.0 1.0 0.00 1.23 0.00 95 1020.3
20260831111802 69 326 0.0 1.0 0.00 1.23 0.00 95 1020.3
20260831111001 69 11 0.0 3.0 0.00 1.23 0.00 95 1020.1
20260831110800 69 279 0.0 3.0 0.00 1.23 0.00 95 1020.2
20260831110003 69 279 0.0 3.0 0.00 1.23 0.00 95 1020.2
20260831105503 69 234 0.0 1.0 0.00 1.23 0.00 95 1020.2
20260831105002 69 11 0.0 1.0 0.00 1.23 0.00 95 1020.1
20260831104502 69 54 0.0 1.0 0.00 1.23 0.00 95 1020.2
20260831104001 69 100 0.0 1.0 0.00 1.23 0.00 95 1020.1
20260831103501 69 279 0.0 1.0 0.00 1.23 0.00 95 1019.9
20260831103002 69 11 0.0 1.0 0.00 1.23 0.00 95 1019.9
20260831102502 69 54 0.0 1.0 0.00 1.23 0.00 94 1019.8
20260831102004 69 28 1.0 4.0 0.00 1.23 0.00 94 1019.7
20260831101502 69 279 1.0 4.0 0.00 1.23 0.00 95 1019.8
20260831101002 69 260 0.0 3.0 0.00 1.23 0.00 94 1019.8
20260831100502 69 326 0.0 1.0 0.00 1.23 0.00 94 1019.7
20260831100004 69 11 0.0 1.0 0.00 1.23 0.00 94 1019.7
20260831095502 69 100 0.0 1.0 0.00 1.23 0.00 94 1019.7
20260831095003 69 11 0.0 1.0 0.00 1.23 0.00 94 1019.7
20260831094501 70 82 0.0 1.0 0.00 1.23 0.00 94 1019.6
20260831094003 70 11 0.0 1.0 0.00 1.23 0.00 94 1019.5
20260831093559 70 143 0.0 1.0 0.00 1.23 0.00 94 1019.4
20260831093540 70 279 0.0 1.0 0.00 1.23 0.00 95 1019.5
20260831092502 70 11 0.0 3.0 0.00 1.23 0.00 94 1019.5
20260831092001 70 125 0.0 3.0 0.00 1.23 0.00 94 1019.5
20260831091501 70 54 0.0 1.0 0.00 1.23 0.00 94 1019.5
20260831091001 70 11 0.0 1.0 0.00 1.23 0.00 94 1019.5
20260831090501 70 353 0.0 1.0 0.00 1.23 0.00 94 1019.6
20260831090259 70 11 0.0 1.0 0.00 1.23 0.00 94 1019.6
20260831085753 70 326 0.0 3.0 0.00 1.23 0.00 94 1019.6
20260831085003 70 11 1.0 3.0 0.00 1.23 0.00 94 1019.7
20260831084500 70 340 1.0 3.0 0.00 1.23 0.00 94 1019.6
20260831084001 70 143 0.0 3.0 0.00 1.23 0.00 94 1019.5
20260831083501 70 289 0.0 1.0 0.00 1.23 0.00 94 1019.6
20260831083002 70 234 0.0 1.0 0.00 1.23 0.00 94 1019.6
20260831082501 70 100 0.0 1.0 0.00 1.23 0.00 94 1019.4
20260831082005 70 143 0.0 1.0 0.00 1.23 0.00 94 1019.5
20260831081502 70 125 0.0 1.0 0.00 1.23 0.00 94 1019.5
20260831080955 70 11 0.0 3.0 0.00 1.23 0.00 94 1019.6
20260831080450 70 143 0.0 5.0 0.00 1.23 0.00 94 1019.6
20260831075943 70 326 1.0 5.0 0.00 1.23 0.00 94 1019.7
20260831075438 70 326 0.0 3.0 0.00 1.23 0.00 94 1019.6
20260831074938 70 326 0.0 3.0 0.00 1.23 0.00 94 1019.6
20260831074441 70 54 0.0 1.0 0.00 1.23 0.00 94 1019.6
20260831073938 70 28 0.0 1.0 0.00 1.23 0.00 94 1019.6
20260831073438 70 326 0.0 1.0 0.00 1.23 0.00 94 1019.5
20260831072939 70 326 0.0 1.0 0.00 1.23 0.00 94 1019.7
20260831072439 70 296 0.0 1.0 0.00 1.23 0.00 94 1019.6
20260831071939 70 100 0.0 1.0 0.00 1.23 0.00 94 1019.6
20260831071437 70 326 0.0 1.0 0.00 1.23 0.00 94 1019.6
20260831070936 70 326 0.0 1.0 0.00 1.23 0.00 94 1019.6
20260831070437 70 11 0.0 1.0 0.00 1.23 0.00 94 1019.7
20260831065937 70 11 0.0 1.0 0.00 1.23 0.00 94 1019.6
20260831065435 70 100 0.0 1.0 0.00 1.23 0.00 94 1019.5
20260831065230 70 143 0.0 1.0 0.00 1.23 0.00 94 1019.6
20260831064431 70 143 0.0 1.0 0.00 1.23 0.00 94 1019.6
20260831063931 70 143 0.0 1.0 0.00 1.23 0.00 94 1019.7
20260831063431 70 325 0.0 1.0 0.00 1.23 0.00 94 1019.7
20260831062931 70 326 0.0 1.0 0.00 1.23 0.00 94 1019.8
20260831062430 70 279 0.0 1.0 0.00 1.23 0.00 94 1019.9
20260831061925 71 11 0.0 1.0 0.00 1.23 0.00 94 1019.8
20260831061417 71 100 0.0 1.0 0.00 1.23 0.00 94 1019.7
20260831060911 71 143 0.0 1.0 0.00 1.23 0.00 94 1019.8
20260831060404 71 279 0.0 1.0 0.00 1.23 0.00 94 1019.9
20260831055902 71 234 0.0 1.0 0.00 1.23 0.00 94 1019.9
20260831055401 71 116 0.0 1.0 0.00 1.23 0.00 94 1019.9
20260831054903 71 100 0.0 1.0 0.00 1.23 0.00 94 1020.0
20260831054658 71 100 0.0 1.0 0.00 1.23 0.00 93 1020.0
20260831053953 71 11 0.0 1.0 0.00 1.23 0.00 93 1020.1
20260831053935 71 11 0.0 1.0 0.00 1.23 0.00 93 1020.0
20260831053249 71 326 0.0 3.0 0.00 1.23 0.00 94 1020.1
20260831052938 71 279 0.0 1.0 0.00 1.23 0.00 94 1020.1
20260831051902 71 326 0.0 3.0 0.00 1.23 0.00 93 1020.2
20260831051402 71 11 0.0 1.0 0.00 1.23 0.00 94 1020.0
20260831050902 71 305 0.0 1.0 0.00 1.23 0.00 93 1020.0
20260831050402 71 11 0.0 1.0 0.00 1.23 0.00 93 1020.0
20260831045902 71 100 0.0 1.0 0.00 1.23 0.00 93 1020.0
20260831045402 71 54 0.0 1.0 0.00 1.23 0.00 93 1020.2
20260831045154 71 54 0.0 1.0 0.00 1.23 0.00 93 1020.4
20260831044402 71 54 0.0 1.0 0.00 1.23 0.00 93 1020.4
20260831043903 71 11 0.0 1.0 0.00 1.23 0.00 93 1020.5
20260831043651 71 234 0.0 0.0 0.00 1.23 0.00 93 1020.4
20260831042853 71 188 0.0 1.0 0.00 1.23 0.00 93 1020.3
20260831042348 71 326 0.0 1.0 0.00 1.23 0.00 93 1020.4
20260831041841 71 326 0.0 0.0 0.00 1.23 0.00 93 1020.4
20260831041334 71 54 0.0 0.0 0.00 1.23 0.00 93 1020.5
20260831040835 71 54 0.0 1.0 0.00 1.23 0.00 93 1020.5
20260831040623 71 11 0.0 1.0 0.00 1.23 0.00 93 1020.6
20260831035833 71 188 0.0 1.0 0.00 1.23 1.23 93 1020.5
20260831035332 71 171 0.0 1.0 0.00 1.23 1.23 93 1020.5
20260831035121 71 11 0.0 1.0 0.00 1.23 1.23 93 1020.5
20260831034332 71 100 0.0 1.0 0.00 1.23 1.23 93 1020.5
20260831033832 71 54 0.0 1.0 0.00 1.23 1.23 93 1020.4
20260831033332 71 28 0.0 1.0 0.00 1.23 1.23 93 1020.4
20260831032833 71 188 0.0 1.0 0.00 1.23 1.23 93 1020.3
20260831032432 71 326 0.0 0.0 0.00 1.23 1.23 92 1020.3
20260831032412 71 205 0.0 0.0 0.00 1.23 1.23 92 1020.3
20260831031422 71 54 0.0 1.0 0.00 1.23 1.23 93 1020.4
20260831031406 71 326 0.0 1.0 0.00 1.23 1.23 93 1020.4
20260831030330 71 326 0.0 1.0 0.00 1.23 1.23 93 1020.5
20260831025829 71 353 0.0 1.0 0.00 1.23 1.23 93 1020.4
20260831025621 71 28 0.0 1.0 0.00 1.23 1.23 92 1020.4
20260831024829 71 11 0.0 3.0 0.00 1.23 1.23 92 1020.6
20260831024323 71 353 1.0 3.0 0.00 1.23 1.23 92 1020.7
20260831023818 71 273 0.0 3.0 0.00 1.23 1.23 92 1020.7
20260831023310 71 279 0.0 1.0 0.00 1.23 1.23 92 1020.8
20260831022810 71 326 0.0 1.0 0.00 1.23 1.23 92 1020.8
20260831022311 71 326 0.0 1.0 0.00 1.23 1.23 92 1020.7
20260831021808 72 54 0.0 1.0 0.00 1.23 1.23 92 1020.8
20260831021307 72 353 0.0 1.0 0.00 1.23 1.23 92 1020.8
20260831021104 72 296 0.0 1.0 0.00 1.23 1.23 92 1020.8
20260831020308 72 353 0.0 1.0 0.00 1.23 1.23 92 1020.7
20260831015809 72 21 0.0 1.0 0.00 1.23 1.23 91 1020.6
20260831015400 72 11 0.0 1.0 0.00 1.23 1.23 91 1020.7
20260831015342 72 100 0.0 1.0 0.00 1.23 1.23 91 1020.7
20260831014307 72 73 0.0 1.0 0.00 1.23 1.23 91 1020.8
20260831013807 72 353 0.0 1.0 0.00 1.23 1.23 91 1020.8
20260831013602 72 326 0.0 3.0 0.00 1.23 1.23 91 1020.8
20260831012808 72 11 1.0 3.0 0.01 1.23 1.23 91 1020.8
20260831012408 72 215 0.0 3.0 0.01 1.23 1.23 91 1020.7
20260831012350 72 162 1.0 3.0 0.01 1.23 1.23 91 1020.9
20260831011309 72 100 0.0 1.0 0.01 1.23 1.23 90 1020.7
20260831010807 72 54 0.0 1.0 0.03 1.23 1.23 90 1020.5
20260831010603 72 296 0.0 1.0 0.08 1.23 1.23 90 1020.5
20260831005807 73 54 0.0 3.0 0.28 1.23 1.23 90 1020.5
20260831005306 73 54 1.0 4.0 0.47 1.23 1.23 89 1020.4
20260831004807 73 305 2.0 4.0 0.70 1.23 1.23 89 1020.4
20260831004302 73 184 1.0 4.0 0.91 1.23 1.23 89 1020.3
20260831003801 73 326 1.0 4.0 1.05 1.23 1.23 89 1020.2
20260831003302 73 248 1.0 4.0 1.15 1.23 1.23 88 1020.3
20260831002802 73 110 1.0 4.0 1.21 1.22 1.22 88 1020.4
20260831002305 73 54 2.0 11.0 1.22 1.22 1.22 87 1020.6
20260831001802 74 158 4.0 12.0 1.22 1.22 1.22 86 1020.9
20260831001557 74 152 3.0 12.0 1.22 1.22 1.21 85 1021.0
20260831000801 75 234 4.0 16.0 1.20 1.20 1.19 84 1020.9
20260831000303 76 131 7.0 19.0 1.14 1.14 1.13 83 1021.5
20260830235802 77 234 7.0 19.0 0.95 0.95 0.90 82 1021.8
20260830235552 78 227 6.0 19.0 0.75 0.75 0.72 80 1021.8
20260830234801 80 220 5.0 19.0 0.53 0.53 0.49 78 1021.5
20260830234301 82 229 3.0 14.0 0.32 0.32 0.28 77 1021.5
20260830233801 83 217 2.0 8.0 0.18 0.18 0.16 76 1021.1
20260830233302 84 82 2.0 5.0 0.08 0.08 0.07 73 1020.4
20260830232801 85 279 1.0 5.0 0.01 0.01 0.01 70 1020.2
20260830232301 85 244 0.0 3.0 0.00 0.00 0.00 68 1020.0
20260830232051 85 11 0.0 3.0 0.00 0.00 0.00 66 1019.8
20260830231302 85 279 0.0 1.0 0.00 0.00 0.00 65 1019.7
20260830230801 86 100 0.0 1.0 0.00 0.00 0.00 64 1019.8
20260830230304 86 326 0.0 1.0 0.00 0.00 0.00 64 1019.8
20260830225802 86 54 0.0 1.0 0.00 0.00 0.00 63 1019.8
20260830225601 87 279 0.0 3.0 0.00 0.00 0.00 63 1019.9
20260830224804 87 100 1.0 4.0 0.00 0.00 0.00 62 1019.9
20260830224303 87 143 1.0 4.0 0.00 0.00 0.00 60 1020.0
20260830223803 88 143 1.0 4.0 0.00 0.00 0.00 60 1019.9
20260830223303 88 162 1.0 4.0 0.00 0.00 0.00 60 1019.9
20260830222803 88 181 1.0 4.0 0.00 0.00 0.00 59 1019.9
20260830222552 88 73 2.0 5.0 0.00 0.00 0.00 59 1019.8
20260830221753 88 234 2.0 7.0 0.00 0.00 0.00 59 1019.7
20260830221543 88 227 2.0 7.0 0.00 0.00 0.00 59 1019.6
20260830221038 88 171 2.0 7.0 0.00 0.00 0.00 59 1019.5
20260830220232 88 192 2.0 7.0 0.00 0.00 0.00 59 1019.4
20260830215732 88 241 2.0 7.0 0.00 0.00 0.00 59 1019.4
20260830215231 88 108 1.0 7.0 0.00 0.00 0.00 59 1019.6
20260830214731 88 21 1.0 4.0 0.00 0.00 0.00 60 1019.4
20260830214232 88 100 1.0 4.0 0.00 0.00 0.00 60 1019.4
20260830213731 88 135 1.0 4.0 0.00 0.00 0.00 60 1019.4
20260830213232 88 100 1.0 5.0 0.00 0.00 0.00 60 1019.4
20260830212730 88 100 1.0 5.0 0.00 0.00 0.00 62 1019.4
20260830212230 87 205 0.0 3.0 0.00 0.00 0.00 63 1019.5
20260830211733 87 234 1.0 3.0 0.00 0.00 0.00 63 1019.5
20260830211232 87 326 1.0 4.0 0.00 0.00 0.00 62 1019.5
20260830211023 87 234 1.0 4.0 0.00 0.00 0.00 60 1019.4
20260830210230 87 100 1.0 3.0 0.00 0.00 0.00 61 1019.4
20260830205731 88 271 1.0 4.0 0.00 0.00 0.00 60 1019.4
20260830205230 89 54 1.0 4.0 0.00 0.00 0.00 57 1019.5
20260830204730 89 188 1.0 5.0 0.00 0.00 0.00 58 1019.6
20260830204521 89 125 1.0 5.0 0.00 0.00 0.00 57 1019.4
20260830203732 89 129 2.0 7.0 0.00 0.00 0.00 58 1019.6
20260830203230 89 260 3.0 9.0 0.00 0.00 0.00 55 1019.7
20260830202729 90 234 3.0 9.0 0.00 0.00 0.00 55 1019.8
20260830202230 90 253 3.0 11.0 0.00 0.00 0.00 57 1019.9
20260830201729 91 213 2.0 11.0 0.00 0.00 0.00 53 1019.9
20260830201230 90 246 2.0 8.0 0.00 0.00 0.00 54 1019.9
20260830200730 90 162 3.0 9.0 0.00 0.00 0.00 54 1019.8
20260830200230 90 213 2.0 9.0 0.00 0.00 0.00 54 1019.8
20260830195729 89 255 2.0 7.0 0.00 0.00 0.00 57 1019.9
20260830195230 90 160 2.0 7.0 0.00 0.00 0.00 54 1019.9
20260830195023 91 86 2.0 9.0 0.00 0.00 0.00 55 1019.9
20260830194230 90 239 2.0 9.0 0.00 0.00 0.00 54 1020.0
20260830193730 90 117 1.0 4.0 0.00 0.00 0.00 58 1019.9
20260830193231 90 234 1.0 4.0 0.00 0.00 0.00 55 1020.1
20260830192730 90 67 1.0 4.0 0.00 0.00 0.00 56 1020.2
20260830192230 89 143 2.0 7.0 0.00 0.00 0.00 56 1020.2
20260830191730 88 78 3.0 9.0 0.00 0.00 0.00 58 1020.4
20260830191231 88 132 3.0 9.0 0.00 0.00 0.00 58 1020.5
20260830191023 88 204 2.0 8.0 0.00 0.00 0.00 58 1020.6
20260830190229 88 153 2.0 5.0 0.00 0.00 0.00 59 1020.6
20260830185730 88 153 2.0 8.0 0.00 0.00 0.00 59 1020.7
20260830185231 89 181 2.0 8.0 0.00 0.00 0.00 59 1020.9
20260830185024 89 179 3.0 12.0 0.00 0.00 0.00 59 1020.9
20260830184230 88 150 4.0 12.0 0.00 0.00 0.00 59 1020.9
20260830183729 88 188 3.0 12.0 0.00 0.00 0.00 59 1021.0
20260830183229 88 172 2.0 12.0 0.00 0.00 0.00 59 1021.2
20260830182730 87 171 2.0 7.0 0.00 0.00 0.00 64 1021.2
20260830182230 87 340 2.0 9.0 0.00 0.00 0.00 64 1021.2
20260830181731 86 153 2.0 9.0 0.00 0.00 0.00 64 1021.4
20260830181230 86 178 2.0 9.0 0.00 0.00 0.00 64 1021.5
20260830181024 85 171 2.0 7.0 0.00 0.00 0.00 67 1021.6
20260830180234 84 166 2.0 7.0 0.00 0.00 0.00 68 1021.7
20260830175731 83 196 2.0 7.0 0.00 0.00 0.00 69 1021.9
20260830175231 83 28 3.0 11.0 0.00 0.00 0.00 70 1021.8
20260830174727 83 172 2.0 11.0 0.00 0.00 0.00 70 1022.0
20260830174220 83 213 2.0 7.0 0.00 0.00 0.00 71 1022.1
20260830174003 83 273 2.0 7.0 0.00 0.00 0.00 70 1022.1
20260830173211 83 210 2.0 7.0 0.00 0.00 0.00 69 1022.1
20260830173003 83 234 2.0 7.0 0.00 0.00 0.00 68 1022.2
20260830172211 84 215 2.0 7.0 0.00 0.00 0.00 68 1022.3
20260830171712 84 196 2.0 7.0 0.00 0.00 0.00 67 1022.5
20260830171213 85 249 3.0 14.0 0.00 0.00 0.00 67 1022.5
20260830170709 85 217 3.0 14.0 0.00 0.00 0.00 67 1022.5
20260830170210 85 196 3.0 11.0 0.00 0.00 0.00 66 1022.6
20260830170159 85 208 4.0 14.0 0.00 0.00 0.00 65 1022.5
20260830165858 85 143 4.0 12.0 0.00 0.00 0.00 66 1022.5
20260830165827 85 205 3.0 14.0 0.00 0.00 0.00 64 1022.5
20260830164506 85 181 4.0 12.0 0.00 0.00 0.00 66 1022.6
20260830163709 85 205 4.0 11.0 0.00 0.00 0.00 67 1022.6
20260830163503 84 187 3.0 11.0 0.00 0.00 0.00 68 1022.5
20260830163004 84 187 3.0 9.0 0.00 0.00 0.00 68 1022.7
20260830162209 83 234 3.0 9.0 0.00 0.00 0.00 71 1022.7
20260830161708 82 205 3.0 9.0 0.00 0.00 0.00 71 1022.7
20260830161207 82 110 2.0 9.0 0.00 0.00 0.00 71 1022.8
20260830161008 82 201 2.0 7.0 0.00 0.00 0.00 71 1022.9
20260830160208 82 201 3.0 9.0 0.00 0.00 0.00 72 1022.9
20260830160002 81 181 3.0 9.0 0.00 0.00 0.00 72 1023.1
20260830155208 81 205 2.0 9.0 0.00 0.00 0.00 73 1023.1
20260830154708 81 160 3.0 9.0 0.00 0.00 0.00 74 1023.1
20260830154500 80 158 3.0 12.0 0.00 0.00 0.00 75 1023.2
20260830153958 79 171 3.0 12.0 0.00 0.00 0.00 77 1023.3
20260830153203 78 174 4.0 11.0 0.00 0.00 0.00 78 1023.4
20260830152704 78 171 4.0 12.0 0.00 0.00 0.00 78 1023.4
20260830152500 78 188 3.0 12.0 0.00 0.00 0.00 79 1023.3
20260830151705 78 282 2.0 8.0 0.00 0.00 0.00 80 1023.3
20260830151204 78 132 3.0 8.0 0.00 0.00 0.00 80 1023.1
20260830150704 78 129 2.0 9.0 0.00 0.00 0.00 81 1023.1
20260830150459 77 188 3.0 9.0 0.00 0.00 0.00 81 1023.2
20260830145702 77 171 3.0 9.0 0.00 0.00 0.00 81 1023.2
20260830145203 77 191 3.0 11.0 0.00 0.00 0.00 81 1023.3
20260830144702 77 184 3.0 11.0 0.00 0.00 0.00 81 1023.3
20260830144201 77 196 2.0 11.0 0.00 0.00 0.00 82 1023.2
20260830143704 77 175 2.0 5.0 0.00 0.00 0.00 82 1023.3
20260830143202 77 143 2.0 7.0 0.00 0.00 0.00 83 1023.3
20260830142701 76 157 2.0 7.0 0.00 0.00 0.00 83 1023.2
20260830142203 76 173 2.0 12.0 0.00 0.00 0.00 83 1023.3
20260830141701 76 168 2.0 12.0 0.00 0.00 0.00 84 1023.3
20260830141204 76 326 1.0 5.0 0.00 0.00 0.00 84 1023.2
20260830140702 76 353 2.0 5.0 0.00 0.00 0.00 85 1023.1
20260830140204 76 153 2.0 7.0 0.00 0.00 0.00 85 1023.1
20260830135704 75 134 2.0 7.0 0.00 0.00 0.00 86 1023.1
20260830135204 75 179 1.0 5.0 0.00 0.00 0.00 86 1023.3
20260830134704 75 171 1.0 4.0 0.00 0.00 0.00 87 1023.4
20260830134201 75 171 2.0 7.0 0.00 0.00 0.00 87 1023.4
20260830133702 75 223 2.0 7.0 0.00 0.00 0.00 87 1023.5
20260830133459 75 152 1.0 7.0 0.00 0.00 0.00 87 1023.6
20260830132701 74 210 2.0 7.0 0.00 0.00 0.00 88 1023.7
20260830132201 74 156 2.0 7.0 0.00 0.00 0.00 88 1023.6
20260830131702 74 166 1.0 5.0 0.00 0.00 0.00 89 1023.6
20260830131201 74 188 1.0 5.0 0.00 0.00 0.00 89 1023.6
20260830130655 74 143 1.0 4.0 0.00 0.00 0.00 89 1023.8
20260830130149 74 251 1.0 7.0 0.00 0.00 0.00 89 1023.8
20260830125643 74 166 1.0 7.0 0.00 0.00 0.00 89 1023.9
20260830125137 73 181 1.0 5.0 0.00 0.00 0.00 90 1023.8
20260830124930 73 166 1.0 8.0 0.00 0.00 0.00 90 1023.8
20260830124132 73 134 1.0 8.0 0.00 0.00 0.00 90 1023.8
20260830123634 73 135 1.0 5.0 0.00 0.00 0.00 90 1023.8
20260830123131 73 100 1.0 4.0 0.00 0.00 0.00 91 1023.8
20260830122631 73 151 1.0 4.0 0.00 0.00 0.00 91 1023.8
20260830122132 73 143 1.0 4.0 0.00 0.00 0.00 91 1023.9
20260830121631 73 234 1.0 5.0 0.00 0.00 0.00 91 1023.9
20260830121429 72 143 1.0 5.0 0.00 0.00 0.00 91 1023.9
20260830120631 72 160 1.0 5.0 0.00 0.00 0.00 91 1023.9
20260830120423 72 155 2.0 8.0 0.00 0.00 0.00 92 1023.9
20260830115921 72 73 2.0 9.0 0.00 0.00 0.00 91 1023.8